GW6104 Weather Reports


Display with metric or nautical units.
time (UTC)temp
F
wind
direction
speed
MPH
gust
MPH
rain 1hr
in
rain 24hr
in
rain mn
in
humidity
%
barometer
mb
20260507224516 68 14 4.0 8.0 0.00 0.00 0.00 40 1018.3
20260507223016 67 150 1.0 5.0 0.00 0.00 0.00 38 1018.5
20260507221512 67 323 1.0 4.0 0.00 0.00 0.00 40 1018.8
20260507220025 67 293 2.0 7.0 0.00 0.00 0.00 50 1019.1
20260507214523 66 258 3.0 6.0 0.00 0.00 0.00 48 1019.1
20260507213021 64 315 2.0 9.0 0.00 0.00 0.00 52 1019.3
20260507211521 64 72 1.0 4.0 0.00 0.00 0.00 51 1019.4
20260507210017 64 302 2.0 7.0 0.00 0.00 0.00 53 1019.8
20260507204520 63 296 2.0 4.0 0.00 0.00 0.00 62 1019.9
20260507203020 62 337 3.0 5.0 0.00 0.00 0.00 54 1020.1
20260507201518 62 348 4.0 8.0 0.00 0.00 0.00 54 1020.2
20260507200024 62 322 4.0 8.0 0.00 0.00 0.00 60 1020.4
20260507194523 61 319 2.0 8.0 0.00 0.00 0.00 59 1020.5
20260507193026 61 263 3.0 9.0 0.00 0.00 0.00 62 1020.7
20260507191529 61 339 1.0 4.0 0.00 0.00 0.00 64 1020.7
20260507190028 59 234 2.0 6.0 0.00 0.00 0.00 65 1020.9
20260507184522 60 286 2.0 4.0 0.00 0.00 0.00 61 1021.0
20260507183012 58 22 1.0 5.0 0.00 0.00 0.00 68 1021.1
20260507181504 56 325 0.0 7.0 0.00 0.00 0.00 64 1021.4
20260507180018 57 21 1.0 4.0 0.00 0.00 0.00 67 1021.4
20260507174514 55 184 1.0 3.0 0.00 0.00 0.00 66 1021.5
20260507173011 57 352 3.0 7.0 0.00 0.00 0.00 66 1021.7
20260507171510 56 65 0.0 4.0 0.00 0.00 0.00 65 1021.8
20260507170008 55 26 2.0 5.0 0.00 0.00 0.00 70 1021.8
20260507164508 54 329 2.0 5.0 0.00 0.00 0.00 69 1021.7
20260507163008 53 44 2.0 5.0 0.00 0.00 0.00 70 1021.7
20260507161520 52 333 3.0 6.0 0.00 0.00 0.00 73 1021.8
20260507160028 52 360 3.0 8.0 0.00 0.00 0.00 73 1021.7
20260507154519 51 248 2.0 6.0 0.00 0.00 0.00 73 1021.7
20260507153016 51 336 4.0 10.0 0.00 0.00 0.00 74 1021.9
20260507151513 50 31 4.0 9.0 0.00 0.00 0.00 76 1021.8
20260507150013 50 296 1.0 8.0 0.00 0.00 0.00 76 1021.7
20260507144528 49 320 4.0 9.0 0.00 0.00 0.00 76 1021.7
20260507143038 49 276 3.0 6.0 0.00 0.00 0.00 76 1021.8
20260507141520 49 337 3.0 11.0 0.00 0.00 0.00 75 1021.8
20260507140020 49 30 5.0 10.0 0.00 0.00 0.00 76 1021.6
20260507134514 49 267 3.0 9.0 0.00 0.00 0.00 77 1021.4
20260507133010 49 335 2.0 8.0 0.00 0.00 0.00 77 1021.2
20260507131512 49 343 3.0 10.0 0.00 0.00 0.00 77 1021.1
20260507130029 49 347 5.0 10.0 0.00 0.00 0.00 77 1021.1
20260507124525 49 308 2.0 9.0 0.00 0.00 0.00 77 1021.2
20260507123023 49 31 4.0 10.0 0.00 0.00 0.00 77 1021.2
20260507121520 49 338 4.0 9.0 0.00 0.00 0.00 77 1021.3
20260507120016 49 336 3.0 9.0 0.00 0.00 0.00 77 1021.4
20260507114521 49 294 4.0 8.0 0.00 0.00 0.00 78 1021.4
20260507113019 49 16 3.0 10.0 0.00 0.00 0.00 77 1021.6
20260507111516 49 331 2.0 5.0 0.00 0.00 0.00 78 1021.5
20260507110015 50 325 4.0 9.0 0.00 0.00 0.00 77 1021.6
20260507104525 50 309 4.0 9.0 0.00 0.00 0.00 77 1021.6
20260507103020 51 28 5.0 11.0 0.00 0.00 0.00 76 1021.8
20260507101518 51 323 4.0 10.0 0.00 0.00 0.00 76 1021.9
20260507100034 51 320 3.0 11.0 0.00 0.00 0.00 76 1021.9
20260507094521 51 298 5.0 11.0 0.00 0.00 0.00 76 1022.0
20260507093022 51 336 3.0 10.0 0.00 0.00 0.00 76 1022.0
20260507091522 52 325 2.0 8.0 0.00 0.00 0.00 77 1022.2
20260507090017 52 337 4.0 11.0 0.00 0.00 0.00 76 1022.3
20260507084521 52 350 2.0 8.0 0.00 0.00 0.00 77 1022.2
20260507083017 52 333 3.0 7.0 0.00 0.00 0.00 78 1022.2
20260507081529 53 313 5.0 12.0 0.00 0.00 0.00 78 1022.2
20260507080025 53 321 4.0 9.0 0.00 0.00 0.00 77 1022.1
20260507074525 53 338 1.0 4.0 0.00 0.00 0.00 77 1022.1
20260507073024 53 294 3.0 6.0 0.00 0.00 0.00 77 1022.1
20260507071528 53 351 1.0 6.0 0.00 0.00 0.00 77 1022.0
20260507070026 53 324 2.0 9.0 0.00 0.00 0.00 77 1021.9
20260507064550 53 280 1.0 9.0 0.00 0.00 0.00 77 1022.0
20260507063034 53 306 5.0 9.0 0.00 0.00 0.00 77 1022.1
20260507061529 53 347 4.0 9.0 0.00 0.00 0.00 78 1022.2
20260507060029 53 317 4.0 11.0 0.00 0.00 0.00 78 1022.1
20260507054525 53 328 5.0 11.0 0.00 0.00 0.00 78 1022.1
20260507053025 53 325 6.0 10.0 0.00 0.00 0.00 78 1022.2
20260507051522 53 5 3.0 9.0 0.00 0.00 0.00 79 1022.2
20260507050038 53 309 2.0 9.0 0.00 0.00 0.00 78 1022.2
20260507044513 54 9 4.0 9.0 0.00 0.00 0.00 78 1022.2
20260507043010 54 9 5.0 11.0 0.00 0.00 0.00 77 1022.2
20260507041520 55 351 6.0 15.0 0.00 0.00 0.00 76 1022.0
20260507040011 55 334 5.0 16.0 0.00 0.00 0.00 76 1022.0
20260507034508 55 304 6.0 14.0 0.00 0.00 0.00 75 1021.8
20260507033025 56 343 6.0 18.0 0.00 0.00 0.00 75 1021.7
20260507031520 56 352 5.0 17.0 0.00 0.00 0.00 74 1021.5
20260507030025 57 11 6.0 11.0 0.00 0.00 0.00 75 1021.3
20260507024519 57 325 6.0 12.0 0.00 0.00 0.00 74 1021.1
20260507023008 58 324 7.0 15.0 0.00 0.00 0.00 73 1021.0
20260507021515 59 9 5.0 12.0 0.00 0.00 0.00 73 1021.0
20260507020012 59 9 4.0 12.0 0.00 0.00 0.00 74 1021.1
20260507014514 60 315 2.0 11.0 0.00 0.00 0.00 73 1021.2
20260507013018 60 331 5.0 14.0 0.00 0.00 0.00 72 1021.3
20260507011517 61 5 8.0 13.0 0.00 0.00 0.00 71 1021.3
20260507010015 61 340 7.0 13.0 0.00 0.00 0.00 70 1021.3
20260507004526 62 360 7.0 13.0 0.00 0.00 0.00 71 1021.1
20260507003023 63 360 7.0 12.0 0.00 0.00 0.00 69 1021.0
20260507001520 63 350 4.0 10.0 0.00 0.00 0.00 69 1021.0
20260507000017 63 9 4.0 12.0 0.00 0.00 0.00 67 1021.0
20260506234517 64 333 6.0 10.0 0.00 0.00 0.00 68 1021.0
20260506233022 65 310 5.0 11.0 0.00 0.00 0.00 70 1020.9
20260506231514 65 302 2.0 8.0 0.00 0.00 0.00 69 1021.0
20260506230029 65 333 3.0 7.0 0.00 0.00 0.00 68 1021.0